EW7469 Weather Reports


Display with metric or nautical units.
time (UTC)temp
F
wind
direction
speed
MPH
gust
MPH
rain 1hr
in
rain 24hr
in
rain mn
in
humidity
%
barometer
mb
20260505221444 81 32 3.0 7.0 0.00 0.00 0.00 54 1015.2
20260505220941 81 39 2.0 5.0 0.00 0.00 0.00 52 1015.2
20260505220507 81 79 2.0 6.0 0.00 0.00 0.00 51 1015.2
20260505215942 81 36 2.0 6.0 0.00 0.00 0.00 50 1015.0
20260505215456 81 35 3.0 6.0 0.00 0.00 0.00 51 1015.0
20260505214933 81 28 2.0 6.0 0.00 0.00 0.00 51 1015.0
20260505214442 81 10 3.0 6.0 0.00 0.00 0.00 49 1014.9
20260505213938 82 39 1.0 5.0 0.00 0.00 0.00 50 1014.9
20260505213435 82 27 2.0 5.0 0.00 0.00 0.00 48 1014.9
20260505212949 82 63 2.0 5.0 0.00 0.00 0.00 48 1014.9
20260505212445 82 81 2.0 5.0 0.00 0.00 0.00 48 1014.9
20260505211939 82 45 2.0 5.0 0.00 0.00 0.00 49 1014.9
20260505211435 83 44 2.0 4.0 0.00 0.00 0.00 48 1014.9
20260505210953 83 52 2.0 5.0 0.00 0.00 0.00 48 1014.9
20260505210448 83 42 1.0 6.0 0.00 0.00 0.00 48 1014.9
20260505205943 84 111 1.0 6.0 0.00 0.00 0.00 47 1014.8
20260505205438 84 98 2.0 6.0 0.00 0.00 0.00 45 1014.8
20260505204933 85 77 2.0 7.0 0.00 0.00 0.00 45 1014.8
20260505204444 85 42 2.0 7.0 0.00 0.00 0.00 44 1014.8
20260505203958 85 101 3.0 9.0 0.00 0.00 0.00 44 1014.8
20260505203443 86 70 3.0 9.0 0.00 0.00 0.00 44 1014.8
20260505202939 86 76 2.0 9.0 0.00 0.00 0.00 44 1015.0
20260505202433 86 38 4.0 9.0 0.00 0.00 0.00 44 1015.0
20260505201944 86 44 2.0 7.0 0.00 0.00 0.00 44 1015.0
20260505201440 86 62 2.0 7.0 0.00 0.00 0.00 45 1015.1
20260505200938 86 71 2.0 5.0 0.00 0.00 0.00 43 1015.1
20260505200433 86 106 1.0 6.0 0.00 0.00 0.00 43 1015.1
20260505195948 86 23 2.0 7.0 0.00 0.00 0.00 43 1015.3
20260505195442 86 48 1.0 7.0 0.00 0.00 0.00 44 1015.3
20260505194939 87 2 2.0 7.0 0.00 0.00 0.00 43 1015.3
20260505194435 86 15 3.0 5.0 0.00 0.00 0.00 42 1015.5
20260505193948 86 50 2.0 5.0 0.00 0.00 0.00 44 1015.5
20260505193442 86 82 2.0 6.0 0.00 0.00 0.00 47 1015.5
20260505192958 86 360 1.0 6.0 0.00 0.00 0.00 43 1015.7
20260505192431 87 41 1.0 5.0 0.00 0.00 0.00 44 1015.7
20260505191946 86 41 2.0 6.0 0.00 0.00 0.00 41 1015.7
20260505191444 87 49 2.0 5.0 0.00 0.00 0.00 41 1015.8
20260505190934 87 46 3.0 5.0 0.00 0.00 0.00 41 1015.8
20260505190442 87 30 1.0 4.0 0.00 0.00 0.00 41 1015.8
20260505185938 87 44 1.0 10.0 0.00 0.00 0.00 41 1016.0
20260505185430 87 40 3.0 10.0 0.00 0.00 0.00 41 1016.0
20260505184940 86 112 2.0 6.0 0.00 0.00 0.00 44 1016.0
20260505184437 86 330 1.0 7.0 0.00 0.00 0.00 43 1015.9
20260505183932 85 38 4.0 7.0 0.00 0.00 0.00 42 1015.9
20260505183442 86 23 2.0 6.0 0.00 0.00 0.00 42 1015.9
20260505182939 86 42 2.0 6.0 0.00 0.00 0.00 43 1016.1
20260505182442 86 342 3.0 6.0 0.00 0.00 0.00 43 1016.1
20260505181938 86 12 2.0 5.0 0.00 0.00 0.00 46 1016.1
20260505181431 86 31 2.0 6.0 0.00 0.00 0.00 42 1016.0
20260505180947 86 47 2.0 6.0 0.00 0.00 0.00 43 1016.0
20260505180443 86 360 3.0 6.0 0.00 0.00 0.00 45 1016.0
20260505175939 85 50 3.0 9.0 0.00 0.00 0.00 47 1016.2
20260505175432 85 32 3.0 9.0 0.00 0.00 0.00 43 1016.2
20260505175006 85 57 2.0 6.0 0.00 0.00 0.00 44 1016.2
20260505174501 84 32 3.0 6.0 0.00 0.00 0.00 43 1016.3
20260505173936 84 72 2.0 5.0 0.00 0.00 0.00 47 1016.3
20260505173445 83 61 2.0 9.0 0.00 0.00 0.00 48 1016.3
20260505172941 82 63 3.0 9.0 0.00 0.00 0.00 51 1016.3
20260505172436 82 37 2.0 8.0 0.00 0.00 0.00 46 1016.3
20260505171933 83 71 1.0 7.0 0.00 0.00 0.00 47 1016.3
20260505171449 83 78 2.0 7.0 0.00 0.00 0.00 48 1016.3
20260505170942 84 163 2.0 7.0 0.00 0.00 0.00 45 1016.3
20260505170438 84 90 1.0 5.0 0.00 0.00 0.00 45 1016.3
20260505170002 85 55 2.0 5.0 0.00 0.00 0.00 45 1016.1
20260505165458 85 29 3.0 5.0 0.00 0.00 0.00 47 1016.1
20260505164954 84 124 2.0 5.0 0.00 0.00 0.00 46 1016.1
20260505164449 84 75 2.0 7.0 0.00 0.00 0.00 48 1016.4
20260505163944 84 53 2.0 7.0 0.00 0.00 0.00 48 1016.4
20260505163439 83 43 1.0 5.0 0.00 0.00 0.00 48 1016.4
20260505162936 83 34 2.0 5.0 0.00 0.00 0.00 48 1016.3
20260505162433 83 38 2.0 5.0 0.00 0.00 0.00 49 1016.3
20260505161943 83 22 2.0 6.0 0.00 0.00 0.00 49 1016.3
20260505161436 82 63 2.0 6.0 0.00 0.00 0.00 52 1016.3
20260505160944 82 54 2.0 11.0 0.00 0.00 0.00 52 1016.3
20260505160440 81 51 3.0 11.0 0.00 0.00 0.00 52 1016.3
20260505152937 80 68 3.0 11.0 0.00 0.00 0.00 56 1016.2
20260505152434 79 76 3.0 7.0 0.00 0.00 0.00 58 1016.2
20260505152009 79 87 2.0 7.0 0.00 0.00 0.00 58 1016.2
20260505151442 79 168 3.0 7.0 0.00 0.00 0.00 58 1015.9
20260505150936 79 91 3.0 7.0 0.00 0.00 0.00 60 1015.9
20260505150441 79 51 2.0 12.0 0.00 0.00 0.00 58 1015.9
20260505140442 77 40 2.0 9.0 0.00 0.00 0.00 62 1015.8
20260505124940 74 63 2.0 9.0 0.00 0.00 0.00 68 1015.3
20260505124438 74 101 2.0 9.0 0.00 0.00 0.00 69 1015.7
20260505123937 74 113 2.0 5.0 0.00 0.00 0.00 70 1015.7
20260505123444 73 46 1.0 5.0 0.00 0.00 0.00 70 1015.7
20260505122936 73 27 2.0 5.0 0.00 0.00 0.00 72 1015.8
20260505122431 73 57 2.0 6.0 0.00 0.00 0.00 71 1015.8
20260505121947 72 57 2.0 6.0 0.00 0.00 0.00 73 1015.8
20260505121442 72 74 0.0 6.0 0.00 0.00 0.00 73 1015.4
20260505120937 72 39 2.0 4.0 0.00 0.00 0.00 75 1015.4
20260505120431 72 89 0.0 5.0 0.00 0.00 0.00 76 1015.4
20260505115948 71 360 2.0 5.0 0.00 0.00 0.00 78 1015.0
20260505115441 71 46 2.0 3.0 0.00 0.00 0.00 77 1015.0
20260505114955 71 12 0.0 3.0 0.00 0.00 0.00 79 1015.0
20260505114447 70 71 0.0 4.0 0.00 0.00 0.00 79 1015.1
20260505113943 70 131 2.0 4.0 0.00 0.00 0.00 79 1015.1
20260505113440 70 44 1.0 4.0 0.00 0.00 0.00 79 1015.1
20260505112935 70 113 1.0 5.0 0.00 0.00 0.00 79 1014.8
20260505112444 70 46 1.0 5.0 0.00 0.00 0.00 79 1014.8
20260505112001 69 52 0.0 3.0 0.00 0.00 0.00 79 1014.8
20260505111437 69 152 1.0 3.0 0.00 0.00 0.00 79 1014.7
20260505110931 69 72 0.0 5.0 0.00 0.00 0.00 79 1014.7
20260505110440 69 70 1.0 5.0 0.00 0.00 0.00 80 1014.7
20260505102006 68 53 1.0 4.0 0.00 0.00 0.00 81 1014.2
20260505101440 68 61 0.0 2.0 0.00 0.00 0.00 82 1014.0
20260505100936 68 65 1.0 5.0 0.00 0.00 0.00 82 1014.0
20260505100445 68 153 1.0 5.0 0.00 0.00 0.00 81 1014.0
20260505095939 68 89 1.0 4.0 0.00 0.00 0.00 81 1013.8
20260505095432 68 60 1.0 3.0 0.00 0.00 0.00 80 1013.8
20260505094945 68 96 0.0 3.0 0.00 0.00 0.00 80 1013.8
20260505094502 68 75 0.0 1.0 0.00 0.00 0.00 80 1013.7
20260505093935 68 75 0.0 2.0 0.00 0.00 0.00 80 1013.7
20260505093432 68 96 0.0 3.0 0.00 0.00 0.00 81 1013.7
20260505092942 68 91 1.0 2.0 0.00 0.00 0.00 80 1013.8
20260505092438 68 75 1.0 2.0 0.00 0.00 0.00 80 1013.8
20260505091934 68 91 0.0 4.0 0.00 0.00 0.00 79 1013.8
20260505091440 68 91 1.0 4.0 0.00 0.00 0.00 79 1013.8
20260505090937 68 79 0.0 1.0 0.00 0.00 0.00 79 1013.8
20260505090432 68 79 0.0 1.0 0.00 0.00 0.00 79 1013.8
20260505085948 68 79 0.0 3.0 0.00 0.00 0.00 79 1013.6
20260505085444 68 79 0.0 4.0 0.00 0.00 0.00 78 1013.6
20260505084938 68 117 0.0 4.0 0.00 0.00 0.00 78 1013.6
20260505084433 68 51 0.0 2.0 0.00 0.00 0.00 78 1013.5
20260505084003 68 95 0.0 2.0 0.00 0.00 0.00 77 1013.5
20260505083458 68 89 0.0 2.0 0.00 0.00 0.00 77 1013.5
20260505082946 68 89 0.0 1.0 0.00 0.00 0.00 77 1013.7
20260505082441 69 96 0.0 1.0 0.00 0.00 0.00 77 1013.7
20260505081938 69 77 0.0 2.0 0.00 0.00 0.00 77 1013.7
20260505081443 69 77 0.0 2.0 0.00 0.00 0.00 77 1013.5
20260505080939 69 96 0.0 2.0 0.00 0.00 0.00 77 1013.5
20260505080433 69 91 0.0 3.0 0.00 0.00 0.00 77 1013.5
20260505075948 69 84 0.0 3.0 0.00 0.00 0.00 76 1013.6
20260505075441 69 73 0.0 2.0 0.00 0.00 0.00 76 1013.6
20260505074937 69 86 0.0 2.0 0.00 0.00 0.00 75 1013.6
20260505074435 69 86 0.0 2.0 0.00 0.00 0.00 75 1013.8
20260505073944 69 86 0.0 2.0 0.00 0.00 0.00 75 1013.8
20260505073500 70 112 0.0 1.0 0.00 0.00 0.00 74 1013.8
20260505072949 70 112 0.0 2.0 0.00 0.00 0.00 74 1014.0
20260505072441 70 112 0.0 3.0 0.00 0.00 0.00 74 1014.0
20260505071938 70 70 0.0 3.0 0.00 0.00 0.00 74 1014.0
20260505071436 70 83 0.0 3.0 0.00 0.00 0.00 74 1013.9
20260505070940 70 70 0.0 3.0 0.00 0.00 0.00 74 1013.9
20260505070436 70 72 1.0 2.0 0.00 0.00 0.00 74 1013.9
20260505065934 70 85 0.0 2.0 0.00 0.00 0.00 73 1014.1
20260505065450 71 87 0.0 3.0 0.00 0.00 0.00 73 1014.1
20260505064959 71 82 0.0 3.0 0.00 0.00 0.00 74 1014.1
20260505064434 71 65 1.0 3.0 0.00 0.00 0.00 74 1014.3
20260505063942 71 74 1.0 7.0 0.00 0.00 0.00 74 1014.3
20260505063438 71 64 1.0 7.0 0.00 0.00 0.00 74 1014.3
20260505062934 71 108 1.0 4.0 0.00 0.00 0.00 74 1014.3
20260505062442 71 88 2.0 5.0 0.00 0.00 0.00 75 1014.3
20260505061935 71 77 1.0 4.0 0.00 0.00 0.00 74 1014.3
20260505061445 71 65 0.0 6.0 0.00 0.00 0.00 74 1014.6
20260505060938 71 74 1.0 6.0 0.00 0.00 0.00 73 1014.6
20260505060444 71 50 0.0 3.0 0.00 0.00 0.00 73 1014.6
20260505055939 71 127 1.0 3.0 0.00 0.00 0.00 74 1015.1
20260505055435 71 97 1.0 3.0 0.00 0.00 0.00 74 1015.1
20260505054931 71 65 1.0 4.0 0.00 0.00 0.00 74 1015.1
20260505054431 71 109 1.0 4.0 0.00 0.00 0.00 74 1015.0
20260505053944 71 71 0.0 4.0 0.00 0.00 0.00 73 1015.0
20260505053440 71 71 0.0 6.0 0.00 0.00 0.00 74 1015.0
20260505052938 71 126 2.0 6.0 0.00 0.00 0.00 74 1015.0
20260505052436 71 114 1.0 4.0 0.00 0.00 0.00 73 1015.0
20260505051944 71 89 1.0 4.0 0.00 0.00 0.00 74 1015.0
20260505051438 71 94 1.0 4.0 0.00 0.00 0.00 74 1015.0
20260505050955 71 22 1.0 4.0 0.00 0.00 0.00 74 1015.0
20260505050452 71 63 1.0 3.0 0.00 0.00 0.00 74 1015.0
20260505041444 71 72 2.0 5.0 0.00 0.00 0.00 74 1015.3
20260505040937 72 242 1.0 5.0 0.00 0.00 0.00 74 1015.3
20260505040432 72 64 1.0 3.0 0.00 0.00 0.00 74 1015.3
20260505040005 71 113 1.0 6.0 0.00 0.00 0.00 73 1015.4
20260505035439 71 122 2.0 6.0 0.00 0.00 0.00 73 1015.4
20260505034936 72 70 0.0 5.0 0.00 0.00 0.00 73 1015.4
20260505034444 72 90 1.0 5.0 0.00 0.00 0.00 72 1015.4
20260505033941 72 71 0.0 5.0 0.00 0.00 0.00 72 1015.4
20260505033436 72 75 1.0 6.0 0.00 0.00 0.00 73 1015.4
20260505032945 72 11 2.0 6.0 0.00 0.00 0.00 73 1015.7
20260505032440 72 115 0.0 5.0 0.00 0.00 0.00 72 1015.7
20260505031935 72 93 2.0 5.0 0.00 0.00 0.00 73 1015.7
20260505031431 72 57 1.0 5.0 0.00 0.00 0.00 73 1015.6
20260505030945 72 84 0.0 3.0 0.00 0.00 0.00 72 1015.6
20260505030441 72 79 0.0 6.0 0.00 0.00 0.00 72 1015.6
20260505025934 72 121 1.0 6.0 0.00 0.00 0.00 72 1015.6
20260505025443 72 65 0.0 7.0 0.00 0.00 0.00 73 1015.6
20260505024939 72 70 1.0 7.0 0.00 0.00 0.00 74 1015.6
20260505024436 72 59 1.0 4.0 0.00 0.00 0.00 73 1015.7
20260505023932 72 155 1.0 6.0 0.00 0.00 0.00 73 1015.7
20260505023447 72 72 1.0 6.0 0.00 0.00 0.00 72 1015.7
20260505022943 72 76 2.0 5.0 0.00 0.00 0.00 72 1015.6
20260505022438 72 60 1.0 4.0 0.00 0.00 0.00 72 1015.6
20260505021939 72 32 0.0 6.0 0.00 0.00 0.00 72 1015.6
20260505021436 72 56 2.0 11.0 0.00 0.00 0.00 71 1015.4
20260505020932 73 63 0.0 11.0 0.00 0.00 0.00 71 1015.4
20260505020441 73 78 1.0 7.0 0.00 0.00 0.00 71 1015.4
20260505015939 73 66 1.0 7.0 0.00 0.00 0.00 71 1015.4
20260505015455 73 70 1.0 4.0 0.00 0.00 0.00 71 1015.4
20260505014504 73 65 2.0 6.0 0.00 0.00 0.00 70 1015.8
20260505013939 73 53 1.0 4.0 0.00 0.00 0.00 70 1015.8
20260505012932 73 61 0.0 7.0 0.00 0.00 0.00 70 1015.4
20260505012456 73 53 2.0 3.0 0.00 0.00 0.00 70 1015.4
20260505011941 73 84 1.0 7.0 0.00 0.00 0.00 70 1015.4
20260505011437 73 73 0.0 7.0 0.00 0.00 0.00 70 1015.3
20260505010945 73 67 1.0 5.0 0.00 0.00 0.00 71 1015.3
20260505010501 73 80 2.0 5.0 0.00 0.00 0.00 71 1015.3
20260505005936 73 1 1.0 4.0 0.00 0.00 0.00 71 1015.0
20260505005431 74 58 1.0 3.0 0.00 0.00 0.00 71 1015.0
20260505004945 74 56 1.0 5.0 0.00 0.00 0.00 71 1015.0
20260505004439 74 98 0.0 3.0 0.00 0.00 0.00 71 1014.9
20260505003945 74 103 0.0 5.0 0.00 0.00 0.00 71 1014.9
20260505003441 74 66 1.0 5.0 0.00 0.00 0.00 71 1014.9
20260505002956 74 60 2.0 6.0 0.00 0.00 0.00 71 1014.8
20260505002432 74 103 1.0 6.0 0.00 0.00 0.00 70 1014.8
20260505001939 74 13 2.0 6.0 0.00 0.00 0.00 70 1014.8
20260505001433 74 100 2.0 6.0 0.00 0.00 0.00 69 1014.6
20260505000949 74 39 2.0 7.0 0.00 0.00 0.00 68 1014.6
20260505000443 75 63 2.0 11.0 0.00 0.00 0.00 68 1014.6
20260504235939 75 52 3.0 11.0 0.00 0.00 0.00 67 1014.4
20260504235435 75 73 2.0 7.0 0.00 0.00 0.00 66 1014.4
20260504234949 75 44 2.0 4.0 0.00 0.00 0.00 66 1014.4
20260504234444 75 32 0.0 7.0 0.00 0.00 0.00 66 1014.4
20260504233937 75 77 2.0 7.0 0.00 0.00 0.00 65 1014.4
20260504233433 75 116 2.0 6.0 0.00 0.00 0.00 64 1014.4
20260504232941 75 83 2.0 5.0 0.00 0.00 0.00 64 1014.3
20260504232436 76 68 2.0 4.0 0.00 0.00 0.00 63 1014.3
20260504231950 76 7 3.0 4.0 0.00 0.00 0.00 62 1014.3
20260504231438 76 44 2.0 4.0 0.00 0.00 0.00 62 1014.4
20260504231005 76 91 2.0 5.0 0.00 0.00 0.00 62 1014.4
20260504230438 76 54 2.0 5.0 0.00 0.00 0.00 62 1014.4
20260504225945 76 89 1.0 3.0 0.00 0.00 0.00 61 1014.4
20260504225437 76 58 1.0 5.0 0.00 0.00 0.00 61 1014.4
20260504224944 76 45 0.0 6.0 0.00 0.00 0.00 61 1014.4
20260504224440 77 57 2.0 6.0 0.00 0.00 0.00 60 1014.4
20260504223934 77 82 2.0 6.0 0.00 0.00 0.00 60 1014.4
20260504223503 77 37 3.0 7.0 0.00 0.00 0.00 59 1014.4
20260504222940 77 48 2.0 7.0 0.00 0.00 0.00 59 1014.5
20260504222438 77 29 2.0 7.0 0.00 0.00 0.00 59 1014.5